CW1621 Weather Reports


Display with metric or nautical units.
time (UTC)temp
F
wind
direction
speed
MPH
gust
MPH
rain 1hr
in
rain 24hr
in
rain mn
in
humidity
%
barometer
mb
20260905000103 62 54 5.0 8.0 0.00 0.31 0.01 57 1017.1
20260904235603 62 329 3.0 6.0 0.00 0.31 0.01 58 1017.1
20260904235103 62 332 3.0 10.0 0.00 0.31 0.01 59 1017.1
20260904234603 61 18 5.0 10.0 0.00 0.31 0.01 61 1017.3
20260904234103 60 32 2.0 7.0 0.00 0.31 0.01 61 1017.3
20260904233603 60 31 4.0 9.0 0.00 0.31 0.01 62 1017.3
20260904233103 60 28 8.0 14.0 0.00 0.31 0.01 60 1017.3
20260904232103 59 33 4.0 7.0 0.00 0.31 0.01 62 1017.6
20260904231603 59 42 3.0 9.0 0.00 0.31 0.01 63 1017.6
20260904231102 60 73 2.0 8.0 0.00 0.31 0.01 61 1017.3
20260904230604 61 70 4.0 7.0 0.00 0.31 0.01 59 1017.0
20260904225603 60 60 4.0 6.0 0.00 0.31 0.01 61 1017.3
20260904225103 60 40 2.0 6.0 0.00 0.31 0.01 65 1017.3
20260904224603 59 59 2.0 6.0 0.00 0.31 0.01 62 1017.4
20260904224103 59 58 1.0 3.0 0.00 0.31 0.01 64 1017.3
20260904223602 59 67 1.0 9.0 0.00 0.31 0.01 62 1017.4
20260904223103 59 81 5.0 8.0 0.00 0.31 0.01 64 1017.4
20260904222602 59 44 3.0 7.0 0.00 0.31 0.01 64 1017.4
20260904222103 59 40 3.0 9.0 0.00 0.31 0.01 67 1017.3
20260904221603 59 27 6.0 12.0 0.00 0.31 0.01 65 1017.4
20260904221103 59 26 5.0 12.0 0.00 0.31 0.01 65 1017.4
20260904220603 59 13 5.0 7.0 0.00 0.31 0.01 68 1017.2
20260904215603 58 34 5.0 12.0 0.00 0.31 0.01 69 1017.5
20260904215103 58 32 6.0 13.0 0.00 0.31 0.01 68 1017.6
20260904214603 58 62 5.0 10.0 0.00 0.31 0.01 67 1017.6
20260904214103 58 55 4.0 10.0 0.00 0.31 0.01 69 1017.6
20260904213603 58 19 5.0 9.0 0.00 0.31 0.01 69 1017.7
20260904213102 57 19 6.0 12.0 0.00 0.31 0.01 71 1017.5
20260904212604 57 31 9.0 12.0 0.00 0.31 0.01 71 1017.5
20260904212103 57 39 3.0 8.0 0.00 0.31 0.01 71 1017.5
20260904211603 58 25 5.0 7.0 0.00 0.31 0.01 69 1017.5
20260904210603 57 120 2.0 3.0 0.00 0.31 0.01 70 1017.6
20260904205603 57 68 2.0 6.0 0.00 0.31 0.01 68 1017.5
20260904205103 57 281 2.0 3.0 0.00 0.31 0.01 70 1017.4
20260904204603 58 300 2.0 5.0 0.00 0.31 0.01 71 1017.5
20260904204103 58 229 2.0 3.0 0.00 0.31 0.01 71 1017.5
20260904203603 57 101 0.0 2.0 0.00 0.31 0.01 68 1017.6
20260904203103 57 101 4.0 13.0 0.00 0.31 0.01 65 1017.5
20260904202603 57 125 3.0 6.0 0.00 0.31 0.01 67 1017.6
20260904202103 57 84 3.0 5.0 0.00 0.31 0.01 66 1017.5
20260904201604 56 93 6.0 9.0 0.00 0.31 0.01 67 1017.7
20260904201103 57 121 6.0 9.0 0.00 0.31 0.01 67 1017.5
20260904200602 57 112 5.0 12.0 0.00 0.31 0.01 69 1017.6
20260904195604 57 143 3.0 12.0 0.00 0.31 0.01 69 1017.7
20260904194603 57 120 3.0 5.0 0.00 0.31 0.01 70 1017.7
20260904194103 57 169 3.0 3.0 0.00 0.31 0.01 69 1017.6
20260904193603 58 92 5.0 8.0 0.00 0.31 0.01 67 1017.7
20260904193103 58 64 3.0 6.0 0.00 0.31 0.01 70 1017.6
20260904192603 58 31 3.0 6.0 0.00 0.31 0.01 72 1017.6
20260904192103 57 30 5.0 9.0 0.00 0.31 0.01 71 1017.8
20260904191603 56 30 2.0 5.0 0.00 0.31 0.01 78 1018.0
20260904191103 55 30 3.0 6.0 0.00 0.31 0.01 75 1018.3
20260904190603 55 44 3.0 5.0 0.00 0.31 0.01 74 1018.4
20260904190104 55 56 3.0 5.0 0.00 0.31 0.01 74 1018.4
20260904185603 55 22 3.0 6.0 0.00 0.31 0.01 76 1018.3
20260904185103 55 30 3.0 6.0 0.00 0.31 0.01 75 1018.3
20260904184603 55 29 1.0 3.0 0.00 0.31 0.01 77 1018.2
20260904184103 55 322 3.0 6.0 0.00 0.31 0.01 75 1018.3
20260904183103 54 346 2.0 3.0 0.00 0.31 0.01 78 1018.4
20260904182603 54 62 3.0 6.0 0.00 0.31 0.01 76 1018.3
20260904182103 54 59 0.0 3.0 0.00 0.31 0.01 75 1018.3
20260904181603 54 58 2.0 3.0 0.00 0.31 0.01 74 1018.3
20260904181103 54 54 5.0 10.0 0.00 0.31 0.01 75 1018.3
20260904180603 53 108 1.0 3.0 0.00 0.31 0.01 73 1018.2
20260904180103 53 135 1.0 3.0 0.00 0.31 0.01 76 1018.2
20260904175603 53 94 1.0 3.0 0.00 0.31 0.01 75 1018.2
20260904175103 53 92 0.0 2.0 0.00 0.31 0.01 74 1018.2
20260904174604 53 92 2.0 3.0 0.00 0.31 0.01 74 1018.1
20260904174103 53 92 2.0 5.0 0.00 0.31 0.01 73 1018.1
20260904173603 53 94 5.0 5.0 0.00 0.31 0.01 74 1018.0
20260904173103 53 141 0.0 0.0 0.00 0.31 0.01 78 1018.0
20260904172603 52 141 1.0 3.0 0.00 0.31 0.01 78 1018.2
20260904172103 52 142 2.0 6.0 0.00 0.31 0.01 75 1018.3
20260904171604 52 131 0.0 3.0 0.00 0.31 0.01 76 1018.3
20260904171103 53 123 0.0 0.0 0.00 0.31 0.01 77 1018.0
20260904170603 53 162 0.0 2.0 0.00 0.31 0.01 74 1017.9
20260904165603 52 207 3.0 5.0 0.00 0.31 0.01 73 1018.1
20260904164604 52 254 3.0 3.0 0.00 0.31 0.01 73 1018.0
20260904163604 52 207 3.0 6.0 0.00 0.31 0.01 75 1018.0
20260904163103 52 170 2.0 6.0 0.00 0.31 0.01 74 1018.0
20260904162603 52 191 3.0 7.0 0.00 0.31 0.01 79 1017.9
20260904162103 52 260 3.0 3.0 0.00 0.31 0.01 75 1017.9
20260904161603 53 239 1.0 5.0 0.00 0.31 0.01 78 1017.6
20260904160604 51 138 1.0 3.0 0.00 0.31 0.01 82 1017.8
20260904160103 51 138 3.0 3.0 0.00 0.31 0.01 82 1017.7
20260904155603 50 138 2.0 3.0 0.00 0.31 0.01 83 1017.6
20260904155103 49 158 3.0 5.0 0.00 0.31 0.01 82 1017.9
20260904154604 49 158 2.0 5.0 0.00 0.31 0.01 82 1017.9
20260904154103 49 158 3.0 6.0 0.00 0.31 0.01 82 1017.9
20260904153603 49 155 4.0 6.0 0.00 0.31 0.01 82 1017.9
20260904153103 48 183 5.0 7.0 0.00 0.31 0.01 82 1017.9
20260904152602 48 186 3.0 5.0 0.00 0.31 0.01 83 1017.9
20260904152103 48 186 2.0 3.0 0.00 0.31 0.01 82 1017.8
20260904151603 48 187 2.0 5.0 0.00 0.31 0.01 83 1017.7
20260904151103 47 188 5.0 6.0 0.00 0.32 0.01 85 1017.9
20260904150603 47 177 5.0 6.0 0.00 0.32 0.01 86 1017.8
20260904150104 47 178 5.0 7.0 0.00 0.32 0.01 88 1017.8
20260904145603 46 175 5.0 6.0 0.00 0.32 0.01 89 1018.0
20260904144603 45 169 5.0 6.0 0.00 0.33 0.01 90 1017.6
20260904144104 44 161 4.0 5.0 0.00 0.33 0.01 90 1017.6
20260904143603 44 161 3.0 5.0 0.00 0.33 0.01 90 1017.9
20260904143103 44 161 3.0 5.0 0.00 0.34 0.01 90 1017.8
20260904142603 44 161 3.0 5.0 0.00 0.34 0.01 90 1017.7
20260904142103 44 160 3.0 5.0 0.00 0.34 0.01 90 1017.6
20260904141603 44 158 2.0 3.0 0.00 0.35 0.01 90 1017.4
20260904141103 44 158 2.0 5.0 0.00 0.35 0.01 90 1017.3
20260904140103 44 175 5.0 6.0 0.00 0.36 0.01 91 1017.0
20260904135603 44 172 3.0 6.0 0.00 0.36 0.01 92 1016.9
20260904135103 44 171 5.0 6.0 0.00 0.37 0.01 92 1017.0
20260904134603 44 172 3.0 6.0 0.00 0.37 0.01 92 1016.8
20260904134103 44 172 5.0 7.0 0.00 0.37 0.01 92 1016.8
20260904133103 44 164 5.0 7.0 0.00 0.37 0.01 92 1016.6
20260904131603 44 157 4.0 6.0 0.00 0.37 0.01 93 1016.3
20260904131103 44 155 3.0 6.0 0.00 0.37 0.01 93 1016.1
20260904130602 44 152 3.0 5.0 0.00 0.37 0.01 93 1015.8
20260904130104 44 135 3.0 5.0 0.00 0.37 0.01 93 1015.7
20260904125603 44 134 5.0 6.0 0.00 0.37 0.01 93 1015.7
20260904124603 44 131 5.0 5.0 0.00 0.37 0.01 93 1015.7
20260904124103 44 131 2.0 3.0 0.00 0.37 0.01 93 1015.6
20260904123603 44 131 3.0 5.0 0.00 0.37 0.01 93 1015.5
20260904123103 44 130 3.0 3.0 0.00 0.37 0.01 93 1015.6
20260904122603 44 129 3.0 3.0 0.00 0.37 0.01 92 1015.3
20260904122104 44 131 0.0 1.0 0.00 0.37 0.01 92 1015.5
20260904121603 44 131 1.0 2.0 0.00 0.37 0.01 93 1015.4
20260904121103 44 131 2.0 3.0 0.00 0.38 0.01 93 1015.3
20260904120603 44 131 3.0 5.0 0.00 0.38 0.01 94 1015.2
20260904120103 44 134 3.0 6.0 0.00 0.38 0.01 94 1015.3
20260904115603 44 132 3.0 5.0 0.00 0.38 0.01 94 1015.3
20260904115104 44 132 2.0 3.0 0.00 0.38 0.01 94 1015.1
20260904114603 44 132 3.0 3.0 0.00 0.38 0.01 94 1015.2
20260904114103 44 131 1.0 3.0 0.00 0.38 0.01 94 1015.1
20260904113603 44 130 1.0 3.0 0.00 0.38 0.01 94 1014.9
20260904112603 45 131 5.0 6.0 0.00 0.38 0.01 93 1014.6
20260904112103 45 148 5.0 6.0 0.00 0.39 0.01 92 1014.6
20260904111603 45 169 3.0 5.0 0.00 0.39 0.01 93 1014.6
20260904111102 45 214 3.0 3.0 0.00 0.39 0.01 94 1014.6
20260904110603 45 214 1.0 3.0 0.00 0.39 0.01 94 1014.6
20260904105603 45 214 3.0 5.0 0.00 0.39 0.01 94 1014.6
20260904105103 45 214 3.0 5.0 0.00 0.39 0.01 94 1014.6
20260904104603 44 214 2.0 3.0 0.00 0.39 0.01 94 1014.4
20260904104103 44 223 2.0 3.0 0.00 0.39 0.01 94 1014.5
20260904103603 44 231 1.0 2.0 0.00 0.39 0.01 94 1014.3
20260904103103 44 231 0.0 1.0 0.00 0.39 0.01 94 1014.1
20260904102103 44 231 0.0 1.0 0.00 0.40 0.01 93 1014.1
20260904101603 44 231 1.0 3.0 0.00 0.40 0.01 94 1014.0
20260904101103 45 231 1.0 2.0 0.00 0.40 0.01 94 1014.0
20260904100603 44 231 0.0 2.0 0.00 0.40 0.01 93 1014.0
20260904100103 45 231 0.0 0.0 0.00 0.41 0.01 94 1014.1
20260904095104 45 231 0.0 2.0 0.00 0.42 0.01 93 1013.9
20260904093603 45 231 2.0 3.0 0.00 0.44 0.01 93 1013.7
20260904093103 45 230 3.0 5.0 0.00 0.44 0.01 93 1013.8
20260904092603 45 226 3.0 6.0 0.00 0.44 0.01 93 1013.9
20260904092104 45 223 3.0 5.0 0.00 0.44 0.01 92 1013.8
20260904091603 45 223 3.0 6.0 0.00 0.44 0.01 92 1013.8
20260904091104 45 221 5.0 6.0 0.00 0.44 0.01 92 1014.0
20260904090603 45 224 5.0 9.0 0.00 0.44 0.01 92 1014.0
20260904085603 45 212 4.0 6.0 0.00 0.45 0.01 91 1014.1
20260904085104 45 217 5.0 7.0 0.00 0.45 0.01 91 1013.8
20260904084603 45 215 5.0 7.0 0.00 0.45 0.01 91 1013.8
20260904084103 45 221 6.0 9.0 0.00 0.46 0.01 90 1013.6
20260904083603 45 231 7.0 12.0 0.00 0.46 0.01 90 1013.8
20260904082103 45 242 7.0 10.0 0.00 0.47 0.01 91 1013.7
20260904081603 45 252 6.0 8.0 0.01 0.47 0.01 92 1013.5
20260904081103 45 243 5.0 9.0 0.01 0.48 0.01 92 1013.6
20260904080603 45 243 6.0 9.0 0.01 0.49 0.01 92 1013.8
20260904075104 45 236 5.0 5.0 0.01 0.52 0.01 93 1013.7
20260904074103 44 250 5.0 7.0 0.02 0.52 0.01 93 1014.0
20260904072603 44 257 3.0 5.0 0.05 0.54 0.01 94 1013.9
20260904071104 44 258 3.0 7.0 0.06 0.56 0.00 93 1013.8
20260904065603 44 271 7.0 10.0 0.09 0.57 0.57 93 1013.6
20260904065104 44 274 9.0 12.0 0.10 0.58 0.57 93 1013.6
20260904064103 44 281 8.0 13.0 0.10 0.57 0.56 93 1013.6
20260904063604 44 276 9.0 12.0 0.10 0.56 0.55 94 1013.7
20260904063104 44 277 7.0 12.0 0.09 0.55 0.54 94 1013.7
20260904062603 44 281 6.0 12.0 0.09 0.54 0.53 94 1013.7
20260904061603 44 285 6.0 9.0 0.08 0.53 0.52 94 1013.7
20260904061104 44 284 5.0 9.0 0.07 0.52 0.51 94 1013.4
20260904060603 45 275 3.0 5.0 0.08 0.52 0.51 94 1013.5
20260904060103 45 275 2.0 3.0 0.07 0.51 0.50 94 1013.4
20260904055603 45 275 4.0 8.0 0.06 0.49 0.48 93 1013.6
20260904055103 45 272 6.0 10.0 0.05 0.48 0.47 93 1013.8
20260904054103 45 275 13.0 20.0 0.05 0.47 0.46 92 1013.9
20260904053103 45 269 15.0 23.0 0.05 0.46 0.45 93 1013.7
20260904052603 45 275 19.0 23.0 0.04 0.45 0.44 92 1013.7
20260904052103 45 279 18.0 24.0 0.04 0.45 0.44 93 1013.6
20260904051604 45 278 17.0 22.0 0.04 0.45 0.44 93 1013.5
20260904051104 45 281 10.0 20.0 0.05 0.45 0.44 93 1013.5
20260904050603 45 285 12.0 18.0 0.05 0.44 0.43 93 1013.6
20260904050104 45 285 9.0 14.0 0.05 0.44 0.43 93 1013.8
20260904045103 45 287 12.0 17.0 0.05 0.43 0.42 92 1013.9
20260904044604 46 279 12.0 16.0 0.05 0.42 0.41 92 1013.8
20260904043603 46 278 13.0 17.0 0.05 0.42 0.41 92 1013.7
20260904043104 46 282 10.0 14.0 0.05 0.41 0.40 92 1013.5
20260904042603 46 282 12.0 18.0 0.06 0.41 0.40 91 1013.5
20260904042103 46 281 13.0 16.0 0.06 0.41 0.40 91 1013.5
20260904041604 46 284 10.0 12.0 0.07 0.41 0.40 92 1013.7
20260904040603 46 272 11.0 13.0 0.05 0.39 0.38 92 1014.1
20260904040104 46 279 8.0 12.0 0.06 0.39 0.38 92 1014.1
20260904035103 47 273 10.0 13.0 0.05 0.38 0.37 92 1013.8
20260904034604 47 282 7.0 13.0 0.05 0.37 0.36 93 1013.7
20260904034103 47 285 8.0 12.0 0.05 0.37 0.36 93 1013.7
20260904033603 47 288 5.0 10.0 0.05 0.37 0.36 94 1013.6
20260904033103 47 279 5.0 7.0 0.05 0.36 0.35 93 1013.7
20260904032603 47 279 3.0 5.0 0.04 0.35 0.34 93 1013.7
20260904032103 47 290 2.0 7.0 0.04 0.35 0.34 93 1013.8
20260904031603 47 276 3.0 6.0 0.03 0.34 0.33 92 1013.8
20260904031103 47 287 5.0 12.0 0.03 0.34 0.33 92 1013.6
20260904030104 48 278 9.0 14.0 0.03 0.33 0.32 92 1013.6
20260904025603 48 273 11.0 14.0 0.03 0.33 0.32 92 1013.6
20260904025104 48 275 9.0 13.0 0.03 0.33 0.32 91 1013.5
20260904024603 49 276 12.0 15.0 0.02 0.32 0.31 89 1013.2
20260904024104 49 264 10.0 14.0 0.03 0.32 0.31 89 1013.0
20260904023604 49 243 7.0 12.0 0.03 0.32 0.31 89 1013.0
20260904023103 50 274 8.0 12.0 0.02 0.31 0.30 89 1013.1
20260904022603 50 266 6.0 10.0 0.02 0.31 0.30 90 1013.1
20260904022104 50 257 5.0 7.0 0.02 0.31 0.30 89 1013.2
20260904021103 51 247 6.0 9.0 0.02 0.31 0.30 88 1013.1
20260904020603 51 264 7.0 9.0 0.03 0.31 0.30 89 1013.0
20260904015603 53 273 6.0 8.0 0.02 0.30 0.29 89 1012.4
20260904015104 53 112 1.0 3.0 0.02 0.30 0.29 83 1012.3
20260904013603 53 64 0.0 3.0 0.01 0.29 0.28 84 1012.4
20260904012603 53 59 0.0 0.0 0.01 0.29 0.28 89 1012.6
20260904012104 54 59 0.0 0.0 0.01 0.29 0.28 87 1012.8
20260904011603 54 140 0.0 0.0 0.01 0.29 0.28 86 1012.8
20260904011103 54 147 0.0 0.0 0.01 0.29 0.28 85 1012.8
20260904010604 54 147 1.0 2.0 0.00 0.28 0.27 84 1012.9
20260904010104 54 147 2.0 3.0 0.00 0.28 0.27 84 1012.9
20260904005603 54 147 3.0 3.0 0.00 0.28 0.27 84 1012.9
20260904005103 54 123 2.0 5.0 0.00 0.28 0.27 84 1012.8
20260904004603 55 125 5.0 7.0 0.00 0.28 0.27 82 1012.5
20260904004103 55 133 5.0 7.0 0.00 0.28 0.27 82 1012.5
20260904003603 55 139 4.0 9.0 0.00 0.28 0.27 83 1012.6
20260904003103 55 121 1.0 6.0 0.00 0.28 0.27 83 1012.7
20260904002603 55 120 5.0 9.0 0.00 0.28 0.27 82 1012.7
20260904002103 55 112 5.0 10.0 0.00 0.28 0.27 83 1012.7
20260904001603 55 107 10.0 13.0 0.00 0.28 0.27 81 1012.8
20260904001103 55 120 9.0 12.0 0.00 0.28 0.27 82 1012.7
20260904000603 55 102 12.0 13.0 0.00 0.28 0.27 82 1012.6